Theta_e
308 308 309 309 309 309 310 310 310 310 310 310 312 314 315 313 310 301 292 298 303 310 310 304 305 303 303 301 304 306 293 290 291 292 291 295 293 297 297 295 293 293 291 294 297
307 307 308 310 311 311 312 313 312 310 310 310 311 312 314 315 298 291 300 306 307 309 300 300 299 300 298 299 298 295 291 290 292 291 290 293 293 292 292 289 287 288 292 295 295
306 306 308 311 312 313 313 312 312 310 309 310 310 310 312 313 298 289 303 305 306 305 299 300 302 299 299 298 296 296 291 293 290 292 292 291 291 290 287 284 285 286 289 292 292
306 307 309 311 312 312 312 311 310 311 310 309 309 310 313 310 287 290 303 303 305 301 299 300 299 296 295 294 297 292 293 293 291 289 289 288 291 287 287 285 290 290 291 291 290
305 306 308 309 311 312 312 310 307 309 310 309 309 311 302 291 286 294 302 300 299 299 298 298 295 295 292 294 294 292 292 292 289 290 286 288 287 286 286 289 291 291 291 289 289
304 305 306 308 309 310 308 310 309 310 309 310 308 304 295 287 293 295 295 297 298 299 296 297 296 297 294 292 291 292 292 289 287 287 285 284 285 288 286 289 289 290 289 289 289
303 304 305 306 308 308 305 310 312 311 308 302 299 296 288 284 293 294 295 295 297 295 292 293 295 295 294 289 291 291 286 287 283 283 283 283 283 282 285 288 287 287 287 288 288
303 303 304 306 306 306 304 303 305 304 302 299 300 296 283 292 293 292 294 294 295 295 294 293 294 290 289 290 288 286 285 281 280 282 283 282 278 283 284 284 284 285 284 286 288
303 302 303 303 305 306 305 303 301 299 298 302 297 295 282 293 288 291 292 289 294 293 293 293 292 287 287 284 279 280 277 278 277 282 281 281 278 283 285 284 282 282 283 284 285
303 302 302 303 303 305 305 303 303 300 297 295 293 289 286 283 288 290 292 291 290 290 291 289 287 281 279 278 274 274 275 277 275 278 280 280 279 282 283 282 280 281 282 283 284
303 302 301 302 302 303 304 301 296 292 288 283 283 283 284 287 291 288 289 288 290 287 281 283 278 273 275 276 277 277 276 274 276 279 277 277 277 280 282 280 279 279 281 281 282
303 302 300 301 301 302 301 294 290 291 280 286 286 285 286 287 284 285 289 285 285 279 282 279 272 277 279 279 277 277 273 274 277 279 277 277 276 280 282 281 280 280 280 280 281
302 301 299 300 300 300 294 290 295 294 285 282 284 283 283 286 280 280 285 284 281 278 278 275 275 278 278 276 276 274 272 272 272 276 278 275 274 277 282 283 283 282 281 281 280
301 301 298 300 296 297 291 293 297 297 285 279 281 282 284 285 278 285 285 283 280 276 277 274 277 276 275 274 274 274 275 274 274 272 270 276 268 275 279 280 283 282 279 279 280
300 298 296 298 296 294 292 296 298 294 272 280 280 287 286 282 281 281 285 284 277 276 276 272 273 273 274 273 274 272 275 274 274 272 270 273 268 272 280 278 279 280 279 278 278
299 295 295 295 296 292 296 297 295 284 270 273 281 279 279 280 280 282 282 283 281 277 276 274 277 276 273 275 275 275 274 274 274 272 266 272 269 269 274 277 279 280 279 279 278
297 294 291 293 290 295 297 294 281 274 276 272 275 278 277 276 277 278 277 276 275 271 273 273 273 275 275 273 275 274 272 269 266 264 269 272 268 270 278 279 279 279 279 277 278
295 293 292 292 295 296 294 287 272 276 273 277 277 277 276 275 275 275 275 273 274 274 274 271 270 272 274 272 271 272 270 267 262 267 268 272 268 271 280 281 280 280 279 280 278
294 293 291 291 294 293 290 278 279 276 277 276 275 275 272 275 274 274 273 274 273 273 272 270 270 273 274 275 273 271 269 270 264 265 263 269 272 276 279 278 278 278 279 278 277
293 290 286 291 292 291 283 281 275 278 278 278 275 275 271 269 272 272 273 274 273 275 273 271 267 273 273 274 273 271 273 267 267 259 260 271 269 271 275 276 278 278 278 278 279
291 288 287 291 290 286 279 278 274 278 279 276 276 270 276 270 273 272 274 273 274 273 275 270 270 270 272 268 270 268 268 269 269 267 263 264 267 274 275 278 278 278 279 277 277
289 283 287 289 284 281 278 274 278 277 278 277 277 276 275 273 271 272 272 274 276 274 272 273 269 266 268 271 272 271 270 270 264 263 265 266 264 278 276 277 277 276 277 278 279
290 286 288 287 280 279 273 274 277 276 276 275 275 276 275 274 268 274 274 276 276 274 269 270 267 263 266 267 269 264 271 273 270 269 264 261 266 276 276 275 276 276 277 278 278
288 282 283 285 280 280 274 274 272 278 277 277 275 276 274 272 274 267 273 274 276 276 278 276 265 264 265 266 266 261 265 271 264 260 265 268 270 272 272 274 275 276 277 277 277
285 280 276 280 277 277 276 275 274 272 274 277 274 272 269 263 269 268 273 273 275 277 275 271 259 261 264 269 268 265 262 267 267 267 264 270 271 272 273 274 276 277 276 276 276
284 281 275 272 274 275 276 273 275 275 272 271 269 275 274 266 270 268 270 272 270 271 269 269 261 260 258 269 270 266 267 267 269 269 269 270 269 275 277 277 275 276 276 276 275
285 283 284 278 275 275 279 277 276 276 276 277 274 275 274 274 275 274 276 276 275 269 269 265 262 257 257 268 267 261 266 267 269 265 269 266 271 274 273 275 274 275 276 276 276
Wind_Speed
15 14 13 13 12 11 9 9 8 7 6 5 6 6 7 10 9 7 10 11 13 21 21 12 5 4 5 0 4 3 2 3 6 7 7 9 9 14 7 5 14 13 14 14 16
14 14 14 13 11 10 9 8 7 7 6 5 5 6 7 9 7 13 13 18 16 16 10 10 7 8 1 2 1 2 1 6 10 10 7 9 9 8 7 14 10 17 16 16 16
14 13 13 12 11 11 9 8 5 5 6 5 4 4 5 8 2 6 22 21 17 13 9 8 8 4 2 2 1 1 3 4 10 9 9 8 10 10 9 10 9 14 16 16 16
16 16 15 14 15 11 11 8 4 5 6 5 4 3 5 5 2 11 22 18 16 10 8 5 5 3 3 4 5 2 8 9 8 8 4 3 5 12 13 5 10 8 9 12 15
16 15 15 13 14 11 15 8 3 2 6 4 3 4 3 4 5 14 18 15 10 8 5 4 5 4 5 5 4 2 7 12 10 6 8 5 5 13 10 7 8 7 10 11 13
15 14 13 14 15 17 15 11 8 9 7 4 3 0 4 4 5 11 10 8 8 6 9 7 6 4 5 6 4 6 8 11 10 6 7 6 5 6 7 5 7 8 9 10 12
14 14 12 13 13 13 13 12 10 10 9 5 1 2 9 4 6 8 10 7 8 9 6 8 7 3 3 7 1 3 9 7 9 8 5 7 9 7 4 6 7 8 7 8 11
15 14 13 13 12 11 12 11 9 6 4 3 5 2 5 0 5 12 11 7 6 5 4 4 5 7 5 2 4 5 3 5 5 8 2 4 7 5 2 5 7 7 6 7 8
15 14 12 11 12 10 10 8 3 3 4 7 4 2 5 3 4 10 7 6 5 5 3 3 3 3 1 3 3 4 2 4 5 5 5 3 8 6 1 4 6 6 7 7 7
15 14 13 11 11 11 12 5 9 5 7 1 4 3 5 4 5 9 7 6 3 4 1 1 3 6 6 4 2 3 5 4 4 6 7 4 6 5 3 3 5 6 6 7 7
17 16 14 11 9 12 9 3 3 2 10 6 6 5 3 6 3 9 5 6 4 1 3 4 10 7 7 6 5 4 3 3 6 3 4 3 5 6 6 1 4 5 6 7 8
17 16 15 11 8 9 4 3 3 2 7 5 4 5 4 4 3 15 13 2 2 4 2 5 6 4 1 3 2 6 1 5 5 2 4 4 7 6 7 3 2 4 5 6 7
16 15 15 11 8 3 5 3 2 5 1 2 3 3 3 5 5 9 11 5 6 10 8 7 5 1 3 7 3 8 5 4 3 5 8 5 7 8 8 6 6 3 3 6 7
16 14 13 14 3 0 3 2 3 4 2 4 3 3 2 2 4 4 5 2 6 5 6 7 2 0 2 5 6 4 5 3 4 4 0 5 4 7 10 10 10 6 3 5 6
16 13 10 11 1 1 3 1 3 2 3 5 3 2 1 2 2 5 3 2 5 4 1 1 3 2 3 3 4 4 3 3 2 4 4 7 2 1 11 9 8 8 4 4 3
12 14 8 1 3 2 2 3 3 3 8 1 1 1 3 2 2 2 2 6 3 5 9 5 1 4 4 2 4 3 2 4 4 3 1 6 1 5 8 10 7 6 5 2 1
7 8 6 3 2 2 3 3 4 4 5 2 1 2 3 2 3 2 2 4 1 6 3 4 4 4 2 3 6 6 3 1 2 2 4 6 1 10 5 5 7 8 6 1 3
5 4 6 6 3 3 2 2 1 1 2 0 2 3 1 2 2 1 3 4 3 3 3 5 3 1 2 4 2 2 1 3 5 2 1 4 7 8 4 8 6 5 4 5 5
3 2 2 4 5 3 1 1 3 2 4 6 2 4 1 1 1 3 1 3 3 3 5 4 3 3 5 3 3 0 1 1 4 2 3 6 6 4 6 6 6 7 6 7 3
3 2 3 5 5 2 3 3 1 2 1 4 4 2 5 4 4 2 7 1 4 2 1 1 4 1 3 1 3 2 2 2 2 2 5 5 3 8 8 9 8 8 9 9 6
3 0 2 4 3 4 2 1 1 2 2 2 2 2 1 6 3 3 5 1 3 4 2 2 2 2 3 5 5 2 2 1 1 2 4 3 8 4 4 9 10 10 9 6 3
3 1 3 3 2 1 1 3 2 5 1 2 3 1 4 4 3 2 4 3 5 7 5 2 2 3 3 5 4 2 2 6 5 5 4 2 11 4 5 3 7 3 3 6 8
0 2 2 3 2 2 1 1 2 2 4 2 2 2 3 4 2 3 4 5 5 3 4 5 2 2 2 4 4 3 5 4 4 1 7 6 8 4 5 4 5 7 7 8 8
1 1 1 2 2 1 4 3 3 1 2 2 2 4 2 1 3 4 5 3 7 3 4 4 1 5 5 4 4 3 4 10 7 4 5 11 14 5 7 7 3 4 7 7 6
2 1 1 2 2 1 0 5 4 5 1 5 2 5 6 3 2 4 4 5 5 5 4 4 3 0 4 5 6 7 6 10 18 14 10 2 17 8 5 8 13 8 8 6 6
1 2 1 3 1 3 4 6 6 4 7 4 4 6 6 6 6 8 7 5 6 3 5 1 2 3 6 5 8 14 11 15 23 22 22 23 30 20 21 14 5 6 8 7 6
0 1 1 4 3 1 3 4 6 9 6 1 6 2 6 5 5 1 5 2 7 9 7 6 5 3 5 3 8 12 20 27 13 7 21 19 24 7 7 5 4 6 6 6 7
Wind_Direction
4 356 351 346 336 324 312 299 294 288 294 306 311 319 327 334 324 43 43 330 323 323 319 290 262 337 275 99 304 305 302 252 0 19 79 34 18 23 324 8 69 30 36 1 352
2 357 352 345 336 323 312 303 280 270 266 266 276 303 322 332 90 62 356 341 330 331 331 352 1 334 101 20 356 260 260 50 39 23 32 40 24 360 4 44 5 4 12 5 6
4 359 355 354 335 324 320 312 275 250 230 234 247 273 311 313 230 35 347 341 335 324 300 299 292 277 202 132 242 1 23 133 58 41 25 40 46 38 6 64 11 7 356 354 11
2 1 359 358 11 15 23 6 327 249 203 203 226 239 268 266 269 353 340 339 328 306 271 277 238 236 224 196 110 189 75 58 75 60 42 21 312 82 51 27 38 7 2 10 18
4 4 359 17 17 35 22 40 24 175 155 177 213 214 251 88 25 339 341 339 333 317 6 327 268 259 249 121 116 254 93 89 78 81 47 288 26 92 47 51 50 29 24 26 26
7 6 9 10 15 20 19 30 72 104 129 146 144 275 248 143 317 351 333 346 353 335 27 4 359 344 25 60 2 69 74 74 47 47 54 22 30 114 28 47 67 49 37 35 31
11 8 6 3 10 8 17 40 70 97 93 96 302 222 55 76 357 349 338 13 9 4 85 13 324 318 18 108 239 119 126 130 35 348 56 328 67 62 5 71 71 70 49 32 33
11 7 4 6 6 10 25 43 62 64 49 338 308 82 82 292 331 8 359 38 41 41 81 31 356 87 21 134 166 179 244 162 54 5 53 288 113 100 50 48 66 63 57 51 52
7 7 1 355 357 352 352 0 317 343 300 273 257 238 94 175 28 333 18 358 327 40 54 49 36 96 127 187 139 209 178 101 125 44 301 277 130 128 48 75 55 46 39 33 30
3 3 359 353 354 344 335 317 333 265 317 153 59 106 47 12 350 325 343 320 317 285 204 252 162 98 25 351 173 91 114 120 65 38 325 56 116 154 122 51 56 35 24 18 15
358 359 357 352 344 351 339 244 206 70 39 56 2 76 63 330 282 2 337 301 228 11 105 349 65 65 35 26 33 66 100 69 103 87 312 117 300 205 167 259 31 16 17 14 16
356 355 353 345 339 327 282 7 67 65 101 60 88 80 73 310 308 2 333 246 345 88 177 55 79 44 306 83 44 22 192 71 102 95 336 275 264 235 184 207 303 332 12 16 11
353 351 349 337 323 318 60 64 347 335 100 66 61 46 335 336 47 351 351 349 31 53 40 66 91 38 337 38 54 53 32 17 338 328 246 276 265 229 199 206 212 237 32 29 22
352 350 347 340 294 123 67 114 325 314 76 149 158 64 300 332 64 18 350 357 31 81 74 75 78 305 124 80 335 133 34 286 261 282 205 179 281 200 193 206 214 186 77 35 19
349 350 342 358 30 18 79 331 313 252 325 24 61 341 358 58 125 40 305 316 69 110 294 120 78 8 74 65 342 85 331 274 277 266 20 192 220 176 176 204 194 161 153 84 36
352 359 332 310 78 31 305 284 252 47 254 81 352 93 176 40 52 162 85 50 18 84 49 91 39 15 28 272 227 287 242 188 218 246 342 141 165 224 180 202 148 145 172 107 22
352 9 25 2 59 326 284 251 61 193 6 297 121 235 48 64 98 347 87 47 81 99 158 162 130 120 288 236 200 232 221 156 351 16 229 119 294 246 164 127 149 163 173 171 263
13 359 62 46 9 313 242 64 211 30 148 333 113 87 296 339 63 152 160 130 27 291 114 161 254 158 28 33 55 12 87 153 202 225 100 132 238 253 132 141 138 157 192 233 252
292 204 63 15 343 315 282 133 237 92 130 156 164 203 143 170 306 222 359 72 70 6 144 123 120 105 46 29 25 1 218 55 98 92 48 232 271 22 135 166 178 206 220 237 249
280 168 53 330 331 275 71 245 169 353 358 189 221 292 168 193 186 221 165 120 126 59 29 91 98 312 110 235 92 10 154 103 346 128 261 253 255 242 203 207 204 218 224 234 217
275 209 15 342 295 46 197 219 208 244 345 279 262 127 57 173 189 203 161 337 112 127 78 75 87 143 51 197 158 146 200 236 40 158 198 276 263 241 116 188 195 205 206 186 236
306 70 359 314 71 346 163 150 246 165 218 210 310 46 177 132 151 199 187 86 161 153 147 149 106 157 183 75 28 330 240 173 142 228 236 150 265 153 127 82 95 67 181 201 230
7 101 100 301 175 173 71 280 264 200 185 181 224 38 340 167 86 145 106 98 128 143 164 196 237 106 307 7 14 235 209 229 101 87 223 154 256 140 133 152 176 212 242 246 248
297 143 41 45 111 21 163 208 195 161 306 93 120 59 129 116 64 163 141 171 164 165 117 138 48 191 192 166 115 209 226 207 145 160 218 221 261 191 188 206 290 311 294 294 281
347 113 34 163 193 158 26 146 160 192 284 182 191 205 163 118 70 187 144 123 168 188 180 118 186 149 268 260 232 215 188 208 215 216 198 156 248 229 249 309 304 289 279 278 264
309 189 217 104 248 159 190 215 190 137 144 244 212 192 172 157 179 183 138 174 185 163 161 43 161 81 300 283 244 258 233 217 230 233 252 260 276 272 274 275 270 253 263 261 253
246 165 303 122 159 217 213 189 199 142 203 99 188 175 195 223 135 297 131 158 152 149 168 145 130 101 265 4 319 287 223 215 213 204 224 236 243 293 295 253 284 297 306 297 279